station,date_time,water_elev
364939089112101,05/03/2011 04:34,309.68
364939089112101,05/03/2011 04:35,309.68
364939089112101,05/03/2011 04:36,309.84
364939089112101,05/03/2011 04:37,309.68
364939089112101,05/03/2011 04:38,309.75
364939089112101,05/03/2011 04:39,309.67
364939089112101,05/03/2011 04:40,309.68
364939089112101,05/03/2011 04:41,309.82
364939089112101,05/03/2011 04:42,309.71
364939089112101,05/03/2011 04:43,309.8
364939089112101,05/03/2011 04:44,309.92
364939089112101,05/03/2011 04:45,309.77
364939089112101,05/03/2011 04:46,309.95
364939089112101,05/03/2011 04:47,309.95
364939089112101,05/03/2011 04:48,310.01
364939089112101,05/03/2011 04:49,309.99
364939089112101,05/03/2011 04:50,310.02
364939089112101,05/03/2011 04:51,310.02
364939089112101,05/03/2011 04:52,310.15
364939089112101,05/03/2011 04:53,310.09
364939089112101,05/03/2011 04:54,310.14
364939089112101,05/03/2011 04:55,310.21
364939089112101,05/03/2011 04:56,310.23
364939089112101,05/03/2011 04:57,310.22
364939089112101,05/03/2011 04:58,310.27
364939089112101,05/03/2011 04:59,310.3
364939089112101,05/03/2011 05:00,310.29
364939089112101,05/03/2011 05:01,310.32
364939089112101,05/03/2011 05:02,310.34
364939089112101,05/03/2011 05:03,310.36
364939089112101,05/03/2011 05:04,310.37
364939089112101,05/03/2011 05:05,310.39
364939089112101,05/03/2011 05:06,310.44
364939089112101,05/03/2011 05:07,310.47
364939089112101,05/03/2011 05:08,310.43
364939089112101,05/03/2011 05:09,310.49
364939089112101,05/03/2011 05:10,310.49
364939089112101,05/03/2011 05:11,310.52
364939089112101,05/03/2011 05:12,310.55
364939089112101,05/03/2011 05:13,310.51
364939089112101,05/03/2011 05:14,310.61
364939089112101,05/03/2011 05:15,310.59
364939089112101,05/03/2011 05:16,310.65
364939089112101,05/03/2011 05:17,310.62
364939089112101,05/03/2011 05:18,310.64
364939089112101,05/03/2011 05:19,310.67
364939089112101,05/03/2011 05:20,310.64
364939089112101,05/03/2011 05:21,310.63
364939089112101,05/03/2011 05:22,310.66
364939089112101,05/03/2011 05:23,310.73
364939089112101,05/03/2011 05:24,310.73
364939089112101,05/03/2011 05:25,310.76
364939089112101,05/03/2011 05:26,310.78
364939089112101,05/03/2011 05:27,310.8
364939089112101,05/03/2011 05:28,310.8
364939089112101,05/03/2011 05:29,310.83
364939089112101,05/03/2011 05:30,310.83
364939089112101,05/03/2011 05:31,310.81
364939089112101,05/03/2011 05:32,310.83
364939089112101,05/03/2011 05:33,310.87
364939089112101,05/03/2011 05:34,310.87
364939089112101,05/03/2011 05:35,310.78
364939089112101,05/03/2011 05:36,310.89
364939089112101,05/03/2011 05:37,310.9
364939089112101,05/03/2011 05:38,310.95
364939089112101,05/03/2011 05:39,310.92
364939089112101,05/03/2011 05:40,310.94
364939089112101,05/03/2011 05:41,310.93
364939089112101,05/03/2011 05:42,311
364939089112101,05/03/2011 05:43,310.99
364939089112101,05/03/2011 05:44,311
364939089112101,05/03/2011 05:45,311
364939089112101,05/03/2011 05:46,311.03
364939089112101,05/03/2011 05:47,311.04
364939089112101,05/03/2011 05:48,311.01
364939089112101,05/03/2011 05:49,311.06
364939089112101,05/03/2011 05:50,311.06
364939089112101,05/03/2011 05:51,311.08
364939089112101,05/03/2011 05:52,311.06
364939089112101,05/03/2011 05:53,311.06
364939089112101,05/03/2011 05:54,311.12
364939089112101,05/03/2011 05:55,311.08
364939089112101,05/03/2011 05:56,311.12
364939089112101,05/03/2011 05:57,311.14
364939089112101,05/03/2011 05:58,311.16
364939089112101,05/03/2011 05:59,311.13
364939089112101,05/03/2011 06:00,311.16
364939089112101,05/03/2011 06:01,311.16
364939089112101,05/03/2011 06:02,311.17
364939089112101,05/03/2011 06:03,311.16
364939089112101,05/03/2011 06:04,311.18
364939089112101,05/03/2011 06:05,311.17
364939089112101,05/03/2011 06:06,311.22
364939089112101,05/03/2011 06:07,311.21
364939089112101,05/03/2011 06:08,311.23
364939089112101,05/03/2011 06:09,311.27
364939089112101,05/03/2011 06:10,311.24
364939089112101,05/03/2011 06:11,311.28
364939089112101,05/03/2011 06:12,311.26
364939089112101,05/03/2011 06:13,311.28
364939089112101,05/03/2011 06:14,311.3
364939089112101,05/03/2011 06:15,311.31
364939089112101,05/03/2011 06:16,311.28
364939089112101,05/03/2011 06:17,311.29
364939089112101,05/03/2011 06:18,311.29
364939089112101,05/03/2011 06:19,311.31
364939089112101,05/03/2011 06:20,311.3
364939089112101,05/03/2011 06:21,311.3
364939089112101,05/03/2011 06:22,311.3
364939089112101,05/03/2011 06:23,311.3
364939089112101,05/03/2011 06:24,311.33
364939089112101,05/03/2011 06:25,311.34
364939089112101,05/03/2011 06:26,311.34
364939089112101,05/03/2011 06:27,311.35
364939089112101,05/03/2011 06:28,311.39
364939089112101,05/03/2011 06:29,311.4
364939089112101,05/03/2011 06:30,311.39
364939089112101,05/03/2011 06:31,311.38
364939089112101,05/03/2011 06:32,311.39
364939089112101,05/03/2011 06:33,311.37
364939089112101,05/03/2011 06:34,311.38
364939089112101,05/03/2011 06:35,311.42
364939089112101,05/03/2011 06:36,311.41
364939089112101,05/03/2011 06:37,311.44
364939089112101,05/03/2011 06:38,311.45
364939089112101,05/03/2011 06:39,311.45
364939089112101,05/03/2011 06:40,311.46
364939089112101,05/03/2011 06:41,311.46
364939089112101,05/03/2011 06:42,311.46
364939089112101,05/03/2011 06:43,311.49
364939089112101,05/03/2011 06:44,311.46
364939089112101,05/03/2011 06:45,311.46
364939089112101,05/03/2011 06:46,311.46
364939089112101,05/03/2011 06:47,311.49
364939089112101,05/03/2011 06:48,311.47
364939089112101,05/03/2011 06:49,311.48
364939089112101,05/03/2011 06:50,311.49
364939089112101,05/03/2011 06:51,311.51
364939089112101,05/03/2011 06:52,311.52
364939089112101,05/03/2011 06:53,311.53
364939089112101,05/03/2011 06:54,311.54
364939089112101,05/03/2011 06:55,311.52
364939089112101,05/03/2011 06:56,311.54
364939089112101,05/03/2011 06:57,311.54
364939089112101,05/03/2011 06:58,311.55
364939089112101,05/03/2011 06:59,311.55
364939089112101,05/03/2011 07:00,311.54
364939089112101,05/03/2011 07:01,311.55
364939089112101,05/03/2011 07:02,311.56
364939089112101,05/03/2011 07:03,311.57
364939089112101,05/03/2011 07:04,311.57
364939089112101,05/03/2011 07:05,311.57
364939089112101,05/03/2011 07:06,311.57
364939089112101,05/03/2011 07:07,311.6
364939089112101,05/03/2011 07:08,311.6
364939089112101,05/03/2011 07:09,311.6
364939089112101,05/03/2011 07:10,311.59
364939089112101,05/03/2011 07:11,311.6
364939089112101,05/03/2011 07:12,311.61
364939089112101,05/03/2011 07:13,311.58
364939089112101,05/03/2011 07:14,311.6
364939089112101,05/03/2011 07:15,311.65
364939089112101,05/03/2011 07:16,311.61
364939089112101,05/03/2011 07:17,311.64
364939089112101,05/03/2011 07:18,311.62
364939089112101,05/03/2011 07:19,311.62
364939089112101,05/03/2011 07:20,311.67
364939089112101,05/03/2011 07:21,311.65
364939089112101,05/03/2011 07:22,311.64
364939089112101,05/03/2011 07:23,311.64
364939089112101,05/03/2011 07:24,311.67
364939089112101,05/03/2011 07:25,311.66
364939089112101,05/03/2011 07:26,311.68
364939089112101,05/03/2011 07:27,311.69
364939089112101,05/03/2011 07:28,311.68
364939089112101,05/03/2011 07:29,311.71
364939089112101,05/03/2011 07:30,311.69
364939089112101,05/03/2011 07:31,311.67
364939089112101,05/03/2011 07:32,311.66
364939089112101,05/03/2011 07:33,311.7
364939089112101,05/03/2011 07:34,311.7
364939089112101,05/03/2011 07:35,311.7
364939089112101,05/03/2011 07:36,311.69
364939089112101,05/03/2011 07:37,311.72
364939089112101,05/03/2011 07:38,311.7
364939089112101,05/03/2011 07:39,311.68
364939089112101,05/03/2011 07:40,311.67
364939089112101,05/03/2011 07:41,311.71
364939089112101,05/03/2011 07:42,311.71
364939089112101,05/03/2011 07:43,311.71
364939089112101,05/03/2011 07:44,311.71
364939089112101,05/03/2011 07:45,311.73
364939089112101,05/03/2011 07:46,311.72
364939089112101,05/03/2011 07:47,311.73
364939089112101,05/03/2011 07:48,311.74
364939089112101,05/03/2011 07:49,311.7
364939089112101,05/03/2011 07:50,311.71
364939089112101,05/03/2011 07:51,311.74
364939089112101,05/03/2011 07:52,311.73
364939089112101,05/03/2011 07:53,311.74
364939089112101,05/03/2011 07:54,311.72
364939089112101,05/03/2011 07:55,311.73
364939089112101,05/03/2011 07:56,311.74
364939089112101,05/03/2011 07:57,311.74
364939089112101,05/03/2011 07:58,311.77
364939089112101,05/03/2011 07:59,311.74
364939089112101,05/03/2011 08:00,311.74
364939089112101,05/03/2011 08:01,311.75
364939089112101,05/03/2011 08:02,311.77
364939089112101,05/03/2011 08:03,311.74
364939089112101,05/03/2011 08:04,311.76
364939089112101,05/03/2011 08:05,311.73
364939089112101,05/03/2011 08:06,311.77
364939089112101,05/03/2011 08:07,311.78
364939089112101,05/03/2011 08:08,311.76
364939089112101,05/03/2011 08:09,311.78
364939089112101,05/03/2011 08:10,311.77
364939089112101,05/03/2011 08:11,311.78
364939089112101,05/03/2011 08:12,311.78
364939089112101,05/03/2011 08:13,311.77
364939089112101,05/03/2011 08:14,311.75
364939089112101,05/03/2011 08:15,311.76
364939089112101,05/03/2011 08:16,311.78
364939089112101,05/03/2011 08:17,311.78
364939089112101,05/03/2011 08:18,311.76
364939089112101,05/03/2011 08:19,311.79
364939089112101,05/03/2011 08:20,311.8
364939089112101,05/03/2011 08:21,311.8
364939089112101,05/03/2011 08:22,311.81
364939089112101,05/03/2011 08:23,311.79
364939089112101,05/03/2011 08:24,311.82
364939089112101,05/03/2011 08:25,311.81
364939089112101,05/03/2011 08:26,311.82
364939089112101,05/03/2011 08:27,311.81
364939089112101,05/03/2011 08:28,311.8
364939089112101,05/03/2011 08:29,311.81
364939089112101,05/03/2011 08:30,311.84
364939089112101,05/03/2011 08:31,311.83
364939089112101,05/03/2011 08:32,311.83
364939089112101,05/03/2011 08:33,311.81
364939089112101,05/03/2011 08:34,311.81
364939089112101,05/03/2011 08:35,311.83
364939089112101,05/03/2011 08:36,311.84
364939089112101,05/03/2011 08:37,311.84
364939089112101,05/03/2011 08:38,311.81
364939089112101,05/03/2011 08:39,311.83
364939089112101,05/03/2011 08:40,311.81
364939089112101,05/03/2011 08:41,311.83
364939089112101,05/03/2011 08:42,311.83
364939089112101,05/03/2011 08:43,311.84
364939089112101,05/03/2011 08:44,311.84
364939089112101,05/03/2011 08:45,311.82
364939089112101,05/03/2011 08:46,311.83
364939089112101,05/03/2011 08:47,311.85
364939089112101,05/03/2011 08:48,311.86
364939089112101,05/03/2011 08:49,311.84
364939089112101,05/03/2011 08:50,311.84
364939089112101,05/03/2011 08:51,311.85
364939089112101,05/03/2011 08:52,311.85
364939089112101,05/03/2011 08:53,311.84
364939089112101,05/03/2011 08:54,311.86
364939089112101,05/03/2011 08:55,311.87
364939089112101,05/03/2011 08:56,311.84
364939089112101,05/03/2011 08:57,311.85
364939089112101,05/03/2011 08:58,311.86
364939089112101,05/03/2011 08:59,311.86
364939089112101,05/03/2011 09:00,311.85
364939089112101,05/03/2011 09:01,311.84
364939089112101,05/03/2011 09:02,311.85
364939089112101,05/03/2011 09:03,311.85
364939089112101,05/03/2011 09:04,311.86
364939089112101,05/03/2011 09:05,311.85
364939089112101,05/03/2011 09:06,311.87
364939089112101,05/03/2011 09:07,311.87
364939089112101,05/03/2011 09:08,311.85
364939089112101,05/03/2011 09:09,311.85
364939089112101,05/03/2011 09:10,311.86
364939089112101,05/03/2011 09:11,311.88
364939089112101,05/03/2011 09:12,311.89
364939089112101,05/03/2011 09:13,311.89
364939089112101,05/03/2011 09:14,311.88
364939089112101,05/03/2011 09:15,311.86
364939089112101,05/03/2011 09:16,311.87
364939089112101,05/03/2011 09:17,311.9
364939089112101,05/03/2011 09:18,311.89
364939089112101,05/03/2011 09:19,311.89
364939089112101,05/03/2011 09:20,311.86
364939089112101,05/03/2011 09:21,311.86
364939089112101,05/03/2011 09:22,311.88
364939089112101,05/03/2011 09:23,311.87
364939089112101,05/03/2011 09:24,311.87
364939089112101,05/03/2011 09:25,311.87
364939089112101,05/03/2011 09:26,311.87
364939089112101,05/03/2011 09:27,311.87
364939089112101,05/03/2011 09:28,311.87
364939089112101,05/03/2011 09:29,311.89
364939089112101,05/03/2011 09:30,311.89
364939089112101,05/03/2011 09:31,311.9
364939089112101,05/03/2011 09:32,311.89
364939089112101,05/03/2011 09:33,311.89
364939089112101,05/03/2011 09:34,311.89
364939089112101,05/03/2011 09:35,311.88
364939089112101,05/03/2011 09:36,311.87
364939089112101,05/03/2011 09:37,311.9
364939089112101,05/03/2011 09:38,311.88
364939089112101,05/03/2011 09:39,311.89
364939089112101,05/03/2011 09:40,311.87
364939089112101,05/03/2011 09:41,311.88
364939089112101,05/03/2011 09:42,311.91
364939089112101,05/03/2011 09:43,311.9
364939089112101,05/03/2011 09:44,311.91
364939089112101,05/03/2011 09:45,311.9
364939089112101,05/03/2011 09:46,311.9
364939089112101,05/03/2011 09:47,311.91
364939089112101,05/03/2011 09:48,311.89
364939089112101,05/03/2011 09:49,311.91
364939089112101,05/03/2011 09:50,311.91
364939089112101,05/03/2011 09:51,311.91
364939089112101,05/03/2011 09:52,311.92
364939089112101,05/03/2011 09:53,311.92
364939089112101,05/03/2011 09:54,311.92
364939089112101,05/03/2011 09:55,311.9
364939089112101,05/03/2011 09:56,311.91
364939089112101,05/03/2011 09:57,311.91
364939089112101,05/03/2011 09:58,311.91
364939089112101,05/03/2011 09:59,311.91
364939089112101,05/03/2011 10:00,311.91
364939089112101,05/03/2011 10:01,311.92
364939089112101,05/03/2011 10:02,311.91
364939089112101,05/03/2011 10:03,311.93
364939089112101,05/03/2011 10:04,311.94
364939089112101,05/03/2011 10:05,311.93
364939089112101,05/03/2011 10:06,311.93
364939089112101,05/03/2011 10:07,311.92
364939089112101,05/03/2011 10:08,311.94
364939089112101,05/03/2011 10:09,311.93
364939089112101,05/03/2011 10:10,311.94
364939089112101,05/03/2011 10:11,311.94
364939089112101,05/03/2011 10:12,311.95
364939089112101,05/03/2011 10:13,311.96
364939089112101,05/03/2011 10:14,311.93
364939089112101,05/03/2011 10:15,311.93
364939089112101,05/03/2011 10:16,311.94
364939089112101,05/03/2011 10:17,311.94
364939089112101,05/03/2011 10:18,311.94
364939089112101,05/03/2011 10:19,311.93
364939089112101,05/03/2011 10:20,311.95
364939089112101,05/03/2011 10:21,311.95
364939089112101,05/03/2011 10:22,311.95
364939089112101,05/03/2011 10:23,311.96
364939089112101,05/03/2011 10:24,311.96
364939089112101,05/03/2011 10:25,311.96
364939089112101,05/03/2011 10:26,311.95
364939089112101,05/03/2011 10:27,311.95
364939089112101,05/03/2011 10:28,311.96
364939089112101,05/03/2011 10:29,311.98
364939089112101,05/03/2011 10:30,311.97
364939089112101,05/03/2011 10:31,311.98
364939089112101,05/03/2011 10:32,311.97
364939089112101,05/03/2011 10:33,311.96
364939089112101,05/03/2011 10:34,311.95
364939089112101,05/03/2011 10:35,311.96
364939089112101,05/03/2011 10:36,311.96
364939089112101,05/03/2011 10:37,311.97
364939089112101,05/03/2011 10:38,311.98
364939089112101,05/03/2011 10:39,311.97
364939089112101,05/03/2011 10:40,311.97
364939089112101,05/03/2011 10:41,311.97
364939089112101,05/03/2011 10:42,311.97
364939089112101,05/03/2011 10:43,311.98
364939089112101,05/03/2011 10:44,311.99
364939089112101,05/03/2011 10:45,311.98
364939089112101,05/03/2011 10:46,311.98
364939089112101,05/03/2011 10:47,312
364939089112101,05/03/2011 10:48,311.97
364939089112101,05/03/2011 10:49,311.99
364939089112101,05/03/2011 10:50,311.95
364939089112101,05/03/2011 10:51,311.98
364939089112101,05/03/2011 10:52,311.97
364939089112101,05/03/2011 10:53,311.99
364939089112101,05/03/2011 10:54,311.98
364939089112101,05/03/2011 10:55,311.98
364939089112101,05/03/2011 10:56,311.98
364939089112101,05/03/2011 10:57,311.98
364939089112101,05/03/2011 10:58,311.98
364939089112101,05/03/2011 10:59,311.98
364939089112101,05/03/2011 11:00,311.96
364939089112101,05/03/2011 11:01,312.01
364939089112101,05/03/2011 11:02,312
364939089112101,05/03/2011 11:03,312
364939089112101,05/03/2011 11:04,312.01
364939089112101,05/03/2011 11:05,312
364939089112101,05/03/2011 11:06,312
364939089112101,05/03/2011 11:07,312.03
364939089112101,05/03/2011 11:08,312
364939089112101,05/03/2011 11:09,312
364939089112101,05/03/2011 11:10,312.01
364939089112101,05/03/2011 11:11,312.01
364939089112101,05/03/2011 11:12,312.01
364939089112101,05/03/2011 11:13,312
364939089112101,05/03/2011 11:14,312.02
364939089112101,05/03/2011 11:15,312.01
364939089112101,05/03/2011 11:16,312
364939089112101,05/03/2011 11:17,311.99
364939089112101,05/03/2011 11:18,312.01
364939089112101,05/03/2011 11:19,312.01
364939089112101,05/03/2011 11:20,312.01
364939089112101,05/03/2011 11:21,312.02
364939089112101,05/03/2011 11:22,312
364939089112101,05/03/2011 11:23,311.99
364939089112101,05/03/2011 11:24,312.01
364939089112101,05/03/2011 11:25,312.01
364939089112101,05/03/2011 11:26,312.01
364939089112101,05/03/2011 11:27,312
364939089112101,05/03/2011 11:28,312.01
364939089112101,05/03/2011 11:29,312.04
364939089112101,05/03/2011 11:30,312.02
364939089112101,05/03/2011 11:31,312.03
364939089112101,05/03/2011 11:32,312.02
364939089112101,05/03/2011 11:33,312
364939089112101,05/03/2011 11:34,312.03
364939089112101,05/03/2011 11:35,312.02
364939089112101,05/03/2011 11:36,312.01
364939089112101,05/03/2011 11:37,312
364939089112101,05/03/2011 11:38,312.04
364939089112101,05/03/2011 11:39,312.03
364939089112101,05/03/2011 11:40,312.04
364939089112101,05/03/2011 11:41,312.02
364939089112101,05/03/2011 11:42,312.02
364939089112101,05/03/2011 11:43,312.01
364939089112101,05/03/2011 11:44,312.03
364939089112101,05/03/2011 11:45,312.03
364939089112101,05/03/2011 11:46,312.06
364939089112101,05/03/2011 11:47,312.03
364939089112101,05/03/2011 11:48,312.03
364939089112101,05/03/2011 11:49,312.04
364939089112101,05/03/2011 11:50,312.04
364939089112101,05/03/2011 11:51,312.05
364939089112101,05/03/2011 11:52,312.04
364939089112101,05/03/2011 11:53,312.05
364939089112101,05/03/2011 11:54,312.03
364939089112101,05/03/2011 11:55,312.04
364939089112101,05/03/2011 11:56,312.04
364939089112101,05/03/2011 11:57,312.03
364939089112101,05/03/2011 11:58,312.03
364939089112101,05/03/2011 11:59,312.07
364939089112101,05/03/2011 12:00,312.05
364939089112101,05/03/2011 12:01,312.04
364939089112101,05/03/2011 12:02,312.03
364939089112101,05/03/2011 12:03,312.04
364939089112101,05/03/2011 12:04,312.04
364939089112101,05/03/2011 12:05,312.06
364939089112101,05/03/2011 12:06,312.03
364939089112101,05/03/2011 12:07,312.03
364939089112101,05/03/2011 12:08,312.05
364939089112101,05/03/2011 12:09,312.07
364939089112101,05/03/2011 12:10,312.05
364939089112101,05/03/2011 12:11,312.04
364939089112101,05/03/2011 12:12,312.05
364939089112101,05/03/2011 12:13,312.04
364939089112101,05/03/2011 12:14,312.02
364939089112101,05/03/2011 12:15,312.05
364939089112101,05/03/2011 12:16,312.06
364939089112101,05/03/2011 12:17,312.07
364939089112101,05/03/2011 12:18,312.06
364939089112101,05/03/2011 12:19,312.07
364939089112101,05/03/2011 12:20,312.06
364939089112101,05/03/2011 12:21,312.06
364939089112101,05/03/2011 12:22,312.05
364939089112101,05/03/2011 12:23,312.05
364939089112101,05/03/2011 12:24,312.04
364939089112101,05/03/2011 12:25,312.07
364939089112101,05/03/2011 12:26,312.07
364939089112101,05/03/2011 12:27,312.06
364939089112101,05/03/2011 12:28,312.06
364939089112101,05/03/2011 12:29,312.06
364939089112101,05/03/2011 12:30,312.07
364939089112101,05/03/2011 12:31,312.07
364939089112101,05/03/2011 12:32,312.06
364939089112101,05/03/2011 12:33,312.08
364939089112101,05/03/2011 12:34,312.05
364939089112101,05/03/2011 12:35,312.07
364939089112101,05/03/2011 12:36,312.07
364939089112101,05/03/2011 12:37,312.06
364939089112101,05/03/2011 12:38,312.08
364939089112101,05/03/2011 12:39,312.06
364939089112101,05/03/2011 12:40,312.07
364939089112101,05/03/2011 12:41,312.08
364939089112101,05/03/2011 12:42,312.06
364939089112101,05/03/2011 12:43,312.06
364939089112101,05/03/2011 12:44,312.07
364939089112101,05/03/2011 12:45,312.07
364939089112101,05/03/2011 12:46,312.08
364939089112101,05/03/2011 12:47,312.07
364939089112101,05/03/2011 12:48,312.08
364939089112101,05/03/2011 12:49,312.08
364939089112101,05/03/2011 12:50,312.06
364939089112101,05/03/2011 12:51,312.07
364939089112101,05/03/2011 12:52,312.07
364939089112101,05/03/2011 12:53,312.06
364939089112101,05/03/2011 12:54,312.08
364939089112101,05/03/2011 12:55,312.07
364939089112101,05/03/2011 12:56,312.09
364939089112101,05/03/2011 12:57,312.07
364939089112101,05/03/2011 12:58,312.09
364939089112101,05/03/2011 12:59,312.07
364939089112101,05/03/2011 13:00,312.05
364939089112101,05/03/2011 13:01,312.06
364939089112101,05/03/2011 13:02,312.07
364939089112101,05/03/2011 13:03,312.09
364939089112101,05/03/2011 13:04,312.08
364939089112101,05/03/2011 13:05,312.08
364939089112101,05/03/2011 13:06,312.09
364939089112101,05/03/2011 13:07,312.08
364939089112101,05/03/2011 13:08,312.08
364939089112101,05/03/2011 13:09,312.06
364939089112101,05/03/2011 13:10,312.09
364939089112101,05/03/2011 13:11,312.08
364939089112101,05/03/2011 13:12,312.08
364939089112101,05/03/2011 13:13,312.1
364939089112101,05/03/2011 13:14,312.08
364939089112101,05/03/2011 13:15,312.07
364939089112101,05/03/2011 13:16,312.05
364939089112101,05/03/2011 13:17,312.07
364939089112101,05/03/2011 13:18,312.07
364939089112101,05/03/2011 13:19,312.08
364939089112101,05/03/2011 13:20,312.06
364939089112101,05/03/2011 13:21,312.09
364939089112101,05/03/2011 13:22,312.08
364939089112101,05/03/2011 13:23,312.09
364939089112101,05/03/2011 13:24,312.06
364939089112101,05/03/2011 13:25,312.06
364939089112101,05/03/2011 13:26,312.06
364939089112101,05/03/2011 13:27,312.08
364939089112101,05/03/2011 13:28,312.08
364939089112101,05/03/2011 13:29,312.08
364939089112101,05/03/2011 13:30,312.09
364939089112101,05/03/2011 13:31,312.08
364939089112101,05/03/2011 13:32,312.07
364939089112101,05/03/2011 13:33,312.07
364939089112101,05/03/2011 13:34,312.09
364939089112101,05/03/2011 13:35,312.1
364939089112101,05/03/2011 13:36,312.09
364939089112101,05/03/2011 13:37,312.07
364939089112101,05/03/2011 13:38,312.09
364939089112101,05/03/2011 13:39,312.08
364939089112101,05/03/2011 13:40,312.07
364939089112101,05/03/2011 13:41,312.1
364939089112101,05/03/2011 13:42,312.08
364939089112101,05/03/2011 13:43,312.08
364939089112101,05/03/2011 13:44,312.09
364939089112101,05/03/2011 13:45,312.07
364939089112101,05/03/2011 13:46,312.07
364939089112101,05/03/2011 13:47,312.08
364939089112101,05/03/2011 13:48,312.08
364939089112101,05/03/2011 13:49,312.08
364939089112101,05/03/2011 13:50,312.08
364939089112101,05/03/2011 13:51,312.09
364939089112101,05/03/2011 13:52,312.08
364939089112101,05/03/2011 13:53,312.07
364939089112101,05/03/2011 13:54,312.08
364939089112101,05/03/2011 13:55,312.07
364939089112101,05/03/2011 13:56,312.07
364939089112101,05/03/2011 13:57,312.08
364939089112101,05/03/2011 13:58,312.09
364939089112101,05/03/2011 13:59,312.09
364939089112101,05/03/2011 14:00,312.08
364939089112101,05/03/2011 14:01,312.08
364939089112101,05/03/2011 14:02,312.08
364939089112101,05/03/2011 14:03,312.08
364939089112101,05/03/2011 14:04,312.08
364939089112101,05/03/2011 14:05,312.09
364939089112101,05/03/2011 14:06,312.11
364939089112101,05/03/2011 14:07,312.1
364939089112101,05/03/2011 14:08,312.09
364939089112101,05/03/2011 14:09,312.1
364939089112101,05/03/2011 14:10,312.07
364939089112101,05/03/2011 14:11,312.08
364939089112101,05/03/2011 14:12,312.08
364939089112101,05/03/2011 14:13,312.1
364939089112101,05/03/2011 14:14,312.1
364939089112101,05/03/2011 14:15,312.1
364939089112101,05/03/2011 14:16,312.12
364939089112101,05/03/2011 14:17,312.11
364939089112101,05/03/2011 14:18,312.1
364939089112101,05/03/2011 14:19,312.11